EW4276 Weather Reports


Display with metric or nautical units.
time (UTC)temp
F
wind
direction
speed
MPH
gust
MPH
rain 1hr
in
rain 24hr
in
rain mn
in
humidity
%
barometer
mb
20260903084324 77 178 2.0 5.0 0.00 0.00 0.00 78 1017.2
20260903083836 77 177 2.0 5.0 0.00 0.00 0.00 78 1017.1
20260903083327 77 166 2.0 5.0 0.00 0.00 0.00 78 1017.1
20260903082820 77 173 3.0 6.0 0.00 0.00 0.00 78 1017.0
20260903082331 77 149 3.0 6.0 0.00 0.00 0.00 78 1016.9
20260903081823 77 173 3.0 6.0 0.00 0.00 0.00 78 1016.9
20260903081315 77 173 4.0 7.0 0.00 0.00 0.00 78 1016.9
20260903080828 77 172 4.0 7.0 0.00 0.00 0.00 79 1016.9
20260903080323 76 162 4.0 7.0 0.00 0.00 0.00 80 1016.9
20260903075833 76 172 3.0 7.0 0.00 0.00 0.00 81 1017.0
20260903075345 76 171 3.0 6.0 0.00 0.00 0.00 81 1017.0
20260903074815 76 184 4.0 6.0 0.00 0.00 0.00 82 1017.0
20260903074327 76 161 3.0 6.0 0.00 0.00 0.00 82 1016.9
20260903073819 76 155 2.0 5.0 0.00 0.00 0.00 83 1017.0
20260903073332 76 153 3.0 7.0 0.00 0.00 0.00 83 1017.0
20260903072824 75 173 3.0 7.0 0.00 0.00 0.00 84 1017.0
20260903072315 75 169 2.0 5.0 0.00 0.00 0.00 84 1017.1
20260903071831 75 175 2.0 6.0 0.00 0.00 0.00 84 1017.0
20260903071344 76 148 3.0 7.0 0.00 0.00 0.00 83 1017.1
20260903070815 76 169 4.0 7.0 0.00 0.00 0.00 83 1017.1
20260903070327 76 172 2.0 8.0 0.00 0.00 0.00 83 1017.1
20260903065817 76 170 4.0 8.0 0.00 0.00 0.00 82 1017.0
20260903065349 76 169 5.0 8.0 0.00 0.00 0.00 82 1017.0
20260903064819 76 187 4.0 8.0 0.00 0.00 0.00 82 1016.9
20260903064332 76 170 4.0 8.0 0.00 0.00 0.00 82 1017.0
20260903063843 76 189 4.0 10.0 0.00 0.00 0.00 82 1017.0
20260903063354 77 147 5.0 10.0 0.00 0.00 0.00 81 1016.9
20260903062826 77 171 4.0 6.0 0.00 0.00 0.00 81 1017.0
20260903062322 77 169 4.0 6.0 0.00 0.00 0.00 81 1016.9
20260903061814 77 177 3.0 7.0 0.00 0.00 0.00 81 1016.9
20260903061326 77 163 4.0 7.0 0.00 0.00 0.00 81 1017.0
20260903060817 77 171 3.0 7.0 0.00 0.00 0.00 81 1016.9
20260903060349 77 163 3.0 7.0 0.00 0.00 0.00 81 1017.0
20260903055838 77 175 4.0 7.0 0.00 0.00 0.00 81 1017.0
20260903055328 77 172 3.0 7.0 0.00 0.00 0.00 81 1017.0
20260903054819 76 176 2.0 5.0 0.00 0.00 0.00 82 1017.1
20260903054333 76 181 2.0 6.0 0.00 0.00 0.00 82 1017.1
20260903053829 76 177 3.0 6.0 0.00 0.00 0.00 82 1017.1
20260903053320 77 165 3.0 8.0 0.00 0.00 0.00 81 1017.2
20260903052813 77 170 3.0 8.0 0.00 0.00 0.00 81 1017.1
20260903052325 77 171 4.0 7.0 0.00 0.00 0.00 81 1017.1
20260903051817 77 166 4.0 7.0 0.00 0.00 0.00 81 1017.3
20260903051329 77 171 2.0 6.0 0.00 0.00 0.00 80 1017.3
20260903050821 77 163 1.0 8.0 0.00 0.00 0.00 80 1017.3
20260903050333 77 170 2.0 6.0 0.00 0.00 0.00 80 1017.3
20260903045843 77 169 3.0 5.0 0.00 0.00 0.00 80 1017.5
20260903045338 77 153 2.0 5.0 0.00 0.00 0.00 80 1017.4
20260903044830 77 170 4.0 6.0 0.00 0.00 0.00 80 1017.4
20260903044320 77 170 2.0 6.0 0.00 0.00 0.00 80 1017.4
20260903043832 78 169 2.0 5.0 0.00 0.00 0.00 80 1017.4
20260903043324 78 175 3.0 5.0 0.00 0.00 0.00 80 1017.5
20260903042815 78 167 2.0 6.0 0.00 0.00 0.00 80 1017.5
20260903042349 78 170 3.0 6.0 0.00 0.00 0.00 80 1017.5
20260903041840 78 175 2.0 6.0 0.00 0.00 0.00 79 1017.5
20260903041331 78 194 3.0 7.0 0.00 0.00 0.00 79 1017.6
20260903040843 78 175 3.0 6.0 0.00 0.00 0.00 79 1017.6
20260903040318 78 167 3.0 6.0 0.00 0.00 0.00 79 1017.7
20260903035829 78 173 3.0 8.0 0.00 0.00 0.00 79 1017.7
20260903035341 78 173 3.0 8.0 0.00 0.00 0.00 79 1017.6
20260903034832 78 167 4.0 8.0 0.00 0.00 0.00 79 1017.7
20260903034323 78 165 5.0 9.0 0.00 0.00 0.00 79 1017.6
20260903033816 78 171 4.0 7.0 0.00 0.00 0.00 79 1017.6
20260903033327 78 175 4.0 7.0 0.00 0.00 0.00 79 1017.6
20260903032839 78 180 4.0 7.0 0.00 0.00 0.00 79 1017.6
20260903032330 78 167 4.0 8.0 0.00 0.00 0.00 79 1017.6
20260903031821 78 173 3.0 7.0 0.00 0.00 0.00 79 1017.6
20260903031317 78 168 4.0 8.0 0.00 0.00 0.00 79 1017.6
20260903030830 78 178 5.0 9.0 0.00 0.00 0.00 79 1017.6
20260903030322 78 197 5.0 9.0 0.00 0.00 0.00 79 1017.6
20260903025813 78 169 3.0 8.0 0.00 0.00 0.00 79 1017.5
20260903025345 77 184 3.0 6.0 0.00 0.00 0.00 80 1017.6
20260903024837 77 172 2.0 5.0 0.00 0.00 0.00 80 1017.6
20260903024328 78 167 1.0 7.0 0.00 0.00 0.00 79 1017.5
20260903023841 78 163 5.0 7.0 0.00 0.00 0.00 79 1017.4
20260903023332 78 186 4.0 7.0 0.00 0.00 0.00 79 1017.4
20260903022823 78 169 4.0 8.0 0.00 0.00 0.00 79 1017.4
20260903022319 78 171 5.0 8.0 0.00 0.00 0.00 79 1017.5
20260903021831 78 174 3.0 7.0 0.00 0.00 0.00 79 1017.5
20260903021322 78 150 3.0 10.0 0.00 0.00 0.00 80 1017.5
20260903020813 77 181 2.0 10.0 0.00 0.00 0.00 80 1017.4
20260903020325 77 174 3.0 6.0 0.00 0.00 0.00 80 1017.4
20260903015815 77 172 1.0 5.0 0.00 0.00 0.00 80 1017.4
20260903015326 77 171 2.0 5.0 0.00 0.00 0.00 81 1017.4
20260903014839 77 165 0.0 6.0 0.00 0.00 0.00 81 1017.6
20260903014314 77 168 1.0 6.0 0.00 0.00 0.00 81 1017.7
20260903013827 77 183 1.0 4.0 0.00 0.00 0.00 81 1017.7
20260903013318 77 175 1.0 6.0 0.00 0.00 0.00 81 1017.7
20260903012850 77 173 1.0 6.0 0.00 0.00 0.00 81 1017.6
20260903012342 77 174 1.0 5.0 0.00 0.00 0.00 80 1017.6
20260903011852 77 165 1.0 4.0 0.00 0.00 0.00 80 1017.6
20260903011323 77 177 1.0 4.0 0.00 0.00 0.00 80 1017.6
20260903010835 77 173 1.0 5.0 0.00 0.00 0.00 77 1017.6
20260903010346 78 173 2.0 5.0 0.00 0.00 0.00 77 1017.6
20260903005814 77 177 1.0 4.0 0.00 0.00 0.00 77 1017.7
20260903005325 77 139 1.0 2.0 0.00 0.00 0.00 78 1017.8
20260903004817 77 136 0.0 1.0 0.00 0.00 0.00 78 1017.8
20260903004349 77 135 0.0 0.0 0.00 0.00 0.00 79 1017.8
20260903003824 77 135 0.0 0.0 0.00 0.00 0.00 79 1017.9
20260903003316 77 135 0.0 0.0 0.00 0.00 0.00 78 1018.0
20260903002849 77 135 0.0 0.0 0.00 0.00 0.00 78 1018.0
20260903002320 77 135 0.0 0.0 0.00 0.00 0.00 77 1018.0
20260903001832 77 135 0.0 0.0 0.00 0.00 0.00 76 1018.0
20260903001323 78 135 0.0 0.0 0.00 0.00 0.00 76 1018.0
20260903000815 78 135 0.0 0.0 0.00 0.00 0.00 75 1017.9
20260903000327 78 135 0.0 0.0 0.00 0.00 0.00 75 1017.9
20260902235822 78 135 0.0 0.0 0.00 0.00 0.00 74 1018.1
20260902235314 78 135 0.0 0.0 0.00 0.00 0.00 74 1018.3
20260902234846 79 135 0.0 0.0 0.00 0.00 0.00 74 1018.3
20260902234317 79 135 0.0 1.0 0.00 0.00 0.00 73 1018.3
20260902233829 79 135 0.0 1.0 0.00 0.00 0.00 73 1018.2
20260902233321 80 134 0.0 1.0 0.00 0.00 0.00 71 1018.1
20260902232813 80 134 0.0 1.0 0.00 0.00 0.00 71 1018.1
20260902232325 80 145 0.0 0.0 0.00 0.00 0.00 69 1018.0
20260902231817 81 145 0.0 2.0 0.00 0.00 0.00 69 1017.9
20260902231334 81 145 0.0 7.0 0.00 0.00 0.00 68 1017.9
20260902230825 81 134 2.0 7.0 0.00 0.00 0.00 67 1017.9
20260902230317 81 168 3.0 8.0 0.00 0.00 0.00 67 1018.1
20260902225827 81 186 4.0 7.0 0.00 0.00 0.00 67 1018.2
20260902225319 81 177 2.0 5.0 0.00 0.00 0.00 68 1018.2
20260902224831 82 175 1.0 5.0 0.00 0.00 0.00 70 1018.3
20260902224322 82 166 4.0 5.0 0.00 0.00 0.00 68 1018.2
20260902223854 83 138 4.0 5.0 0.00 0.00 0.00 67 1018.2
20260902223324 83 166 0.0 1.0 0.00 0.00 0.00 68 1018.1
20260902222820 83 163 0.0 0.0 0.00 0.00 0.00 68 1018.1
20260902222332 83 163 0.0 1.0 0.00 0.00 0.00 68 1017.9
20260902221823 83 165 0.0 1.0 0.00 0.00 0.00 68 1017.8
20260902221316 83 83 0.0 0.0 0.00 0.00 0.00 68 1017.7
20260902220827 83 165 0.0 2.0 0.00 0.00 0.00 68 1017.6
20260902220319 83 166 0.0 7.0 0.00 0.00 0.00 69 1017.6
20260902215828 83 167 3.0 9.0 0.00 0.00 0.00 69 1017.7
20260902215319 82 186 4.0 10.0 0.00 0.00 0.00 69 1017.7
20260902214815 82 169 3.0 8.0 0.00 0.00 0.00 70 1017.9
20260902214327 82 181 4.0 10.0 0.00 0.00 0.00 70 1017.7
20260902213820 82 174 6.0 10.0 0.00 0.00 0.00 69 1017.8
20260902213332 82 175 4.0 9.0 0.00 0.00 0.00 71 1017.9
20260902212823 82 163 3.0 10.0 0.00 0.00 0.00 71 1017.9
20260902212317 82 175 5.0 10.0 0.00 0.00 0.00 70 1018.0
20260902211849 82 140 7.0 10.0 0.00 0.00 0.00 69 1018.1
20260902211320 83 180 6.0 10.0 0.00 0.00 0.00 70 1018.3
20260902210854 83 193 6.0 10.0 0.00 0.00 0.00 70 1018.3
20260902210345 82 146 4.0 14.0 0.00 0.00 0.00 70 1018.3
20260902205820 82 184 6.0 10.0 0.00 0.00 0.00 71 1018.3
20260902205352 82 174 6.0 15.0 0.00 0.00 0.00 71 1018.3
20260902204823 83 160 9.0 15.0 0.00 0.00 0.00 71 1018.2
20260902204314 83 161 8.0 12.0 0.00 0.00 0.00 71 1018.3
20260902203826 83 162 4.0 10.0 0.00 0.00 0.00 70 1018.2
20260902203318 83 169 3.0 16.0 0.00 0.00 0.00 71 1018.1
20260902202830 83 175 8.0 16.0 0.00 0.00 0.00 70 1018.3
20260902202322 83 180 6.0 13.0 0.00 0.00 0.00 72 1018.3
20260902201813 83 167 8.0 11.0 0.00 0.00 0.00 70 1018.4
20260902201330 83 146 4.0 10.0 0.00 0.00 0.00 70 1018.2
20260902200822 83 194 6.0 12.0 0.00 0.00 0.00 69 1018.3
20260902200353 83 274 6.0 14.0 0.00 0.00 0.00 71 1018.5
20260902195822 82 150 7.0 14.0 0.00 0.00 0.00 71 1018.6
20260902195314 82 131 7.0 13.0 0.00 0.00 0.00 71 1018.8
20260902194826 83 153 7.0 13.0 0.00 0.00 0.00 70 1018.8
20260902194318 83 66 1.0 9.0 0.00 0.00 0.00 74 1018.7
20260902193829 82 143 2.0 9.0 0.00 0.00 0.00 77 1018.6
20260902193320 81 155 2.0 9.0 0.00 0.00 0.00 78 1018.6
20260902192816 81 314 2.0 9.0 0.00 0.00 0.00 77 1018.4
20260902192328 80 51 3.0 10.0 0.00 0.00 0.00 76 1018.3
20260902191820 80 51 5.0 12.0 0.00 0.00 0.00 76 1018.1
20260902191332 81 47 5.0 12.0 0.00 0.00 0.00 76 1018.1
20260902190823 80 30 6.0 11.0 0.00 0.00 0.00 76 1018.2
20260902190314 81 26 6.0 11.0 0.00 0.00 0.00 78 1018.4
20260902185825 81 24 3.0 7.0 0.00 0.00 0.00 77 1018.5
20260902185337 80 28 2.0 9.0 0.00 0.00 0.00 79 1018.5
20260902184828 80 28 2.0 9.0 0.00 0.00 0.00 79 1018.6
20260902184344 79 69 2.0 11.0 0.00 0.00 0.00 82 1018.5
20260902183814 79 74 4.0 11.0 0.00 0.00 0.00 79 1019.0
20260902183325 79 69 4.0 11.0 0.00 0.00 0.00 82 1018.9
20260902182838 79 360 5.0 11.0 0.00 0.00 0.00 82 1019.1
20260902182329 78 46 5.0 13.0 0.00 0.00 0.00 84 1019.2
20260902181842 77 47 5.0 13.0 0.00 0.00 0.00 84 1019.8
20260902181353 79 27 9.0 13.0 0.00 0.00 0.00 80 1019.8
20260902180824 80 59 6.0 19.0 0.00 0.00 0.00 77 1019.3
20260902180315 82 38 12.0 19.0 0.00 0.00 0.00 73 1019.1
20260902175848 85 33 8.0 14.0 0.00 0.00 0.00 67 1019.1
20260902175319 89 30 6.0 13.0 0.00 0.00 0.00 62 1019.1
20260902174815 91 15 3.0 7.0 0.00 0.00 0.00 59 1018.9
20260902174326 91 313 2.0 7.0 0.00 0.00 0.00 59 1018.7
20260902173818 91 89 1.0 3.0 0.00 0.00 0.00 58 1018.7
20260902173330 91 161 0.0 5.0 0.00 0.00 0.00 58 1018.9
20260902172822 91 200 1.0 5.0 0.00 0.00 0.00 58 1019.0
20260902172314 91 269 0.0 2.0 0.00 0.00 0.00 59 1019.1
20260902171846 91 69 0.0 4.0 0.00 0.00 0.00 60 1019.3
20260902171337 91 63 3.0 4.0 0.00 0.00 0.00 58 1019.3
20260902170828 90 292 1.0 4.0 0.00 0.00 0.00 61 1019.4
20260902170324 89 246 0.0 7.0 0.00 0.00 0.00 62 1019.4
20260902165814 89 292 2.0 6.0 0.00 0.00 0.00 61 1019.5
20260902165326 89 286 2.0 7.0 0.00 0.00 0.00 63 1019.6
20260902164818 89 278 1.0 5.0 0.00 0.00 0.00 62 1019.6
20260902164330 89 98 0.0 8.0 0.00 0.00 0.00 62 1019.6
20260902163821 89 271 2.0 8.0 0.00 0.00 0.00 62 1019.6
20260902163313 89 92 1.0 7.0 0.00 0.00 0.00 63 1019.6
20260902162825 89 277 4.0 7.0 0.00 0.00 0.00 62 1019.6
20260902162337 89 158 2.0 5.0 0.00 0.00 0.00 61 1019.6
20260902161831 89 115 2.0 8.0 0.00 0.00 0.00 60 1019.8
20260902161323 90 36 3.0 8.0 0.00 0.00 0.00 61 1019.7
20260902160815 91 284 3.0 8.0 0.00 0.00 0.00 60 1019.7
20260902160327 90 71 3.0 8.0 0.00 0.00 0.00 61 1019.6
20260902155818 90 281 5.0 8.0 0.00 0.00 0.00 61 1019.6
20260902155330 90 299 2.0 7.0 0.00 0.00 0.00 61 1019.5
20260902154822 90 148 2.0 6.0 0.00 0.00 0.00 61 1019.4
20260902154333 90 94 2.0 5.0 0.00 0.00 0.00 62 1019.4
20260902153829 90 161 1.0 5.0 0.00 0.00 0.00 63 1019.5
20260902153321 90 143 3.0 7.0 0.00 0.00 0.00 62 1019.6
20260902152832 90 82 2.0 7.0 0.00 0.00 0.00 64 1019.5
20260902152322 89 174 2.0 8.0 0.00 0.00 0.00 64 1019.5
20260902151814 89 84 3.0 8.0 0.00 0.00 0.00 64 1019.5
20260902151326 89 173 1.0 5.0 0.00 0.00 0.00 64 1019.5
20260902150817 88 170 1.0 5.0 0.00 0.00 0.00 65 1019.5
20260902150350 88 305 0.0 7.0 0.00 0.00 0.00 66 1019.4
20260902145818 87 138 2.0 7.0 0.00 0.00 0.00 65 1019.4
20260902145314 87 19 2.0 6.0 0.00 0.00 0.00 67 1019.4
20260902144825 87 170 2.0 8.0 0.00 0.00 0.00 67 1019.4
20260902144337 87 153 3.0 8.0 0.00 0.00 0.00 67 1019.4
20260902143827 86 165 1.0 5.0 0.00 0.00 0.00 68 1019.3
20260902143319 86 161 0.0 5.0 0.00 0.00 0.00 69 1019.3
20260902142831 85 179 2.0 5.0 0.00 0.00 0.00 69 1019.4
20260902142324 85 166 2.0 5.0 0.00 0.00 0.00 69 1019.3
20260902141816 84 172 1.0 5.0 0.00 0.00 0.00 71 1019.4
20260902141328 84 180 2.0 5.0 0.00 0.00 0.00 71 1019.3
20260902140824 83 173 1.0 4.0 0.00 0.00 0.00 72 1019.3
20260902140337 83 178 3.0 5.0 0.00 0.00 0.00 71 1019.3
20260902135827 83 174 2.0 5.0 0.00 0.00 0.00 72 1019.2
20260902135319 83 188 2.0 5.0 0.00 0.00 0.00 72 1019.2
20260902134853 83 173 2.0 6.0 0.00 0.00 0.00 72 1019.2
20260902134345 83 176 2.0 6.0 0.00 0.00 0.00 71 1019.3
20260902133816 83 170 2.0 7.0 0.00 0.00 0.00 71 1019.4
20260902133327 83 169 2.0 7.0 0.00 0.00 0.00 72 1019.3
20260902132315 82 165 3.0 7.0 0.00 0.00 0.00 72 1019.2
20260902131848 81 192 5.0 7.0 0.00 0.00 0.00 73 1019.2
20260902131319 81 161 3.0 7.0 0.00 0.00 0.00 74 1019.2
20260902130831 81 184 3.0 7.0 0.00 0.00 0.00 74 1019.3
20260902130325 80 167 3.0 7.0 0.00 0.00 0.00 74 1019.3
20260902125815 80 168 4.0 7.0 0.00 0.00 0.00 74 1019.3
20260902125327 80 178 4.0 6.0 0.00 0.00 0.00 75 1019.3
20260902124819 79 171 3.0 6.0 0.00 0.00 0.00 76 1019.2
20260902124331 79 178 3.0 6.0 0.00 0.00 0.00 76 1019.2
20260902123827 79 171 3.0 7.0 0.00 0.00 0.00 76 1019.1
20260902123319 78 171 3.0 6.0 0.00 0.00 0.00 77 1019.0
20260902122831 78 169 4.0 7.0 0.00 0.00 0.00 77 1019.0
20260902122322 78 161 3.0 6.0 0.00 0.00 0.00 77 1019.1
20260902121814 78 169 2.0 4.0 0.00 0.00 0.00 77 1019.0
20260902121326 77 169 2.0 4.0 0.00 0.00 0.00 77 1019.0
20260902120818 77 169 1.0 3.0 0.00 0.00 0.00 78 1019.0
20260902120332 77 170 0.0 2.0 0.00 0.00 0.00 79 1019.0
20260902115825 76 176 0.0 1.0 0.00 0.00 0.00 79 1018.9
20260902115337 76 165 0.0 0.0 0.00 0.00 0.00 80 1018.9
20260902114828 76 165 0.0 0.0 0.00 0.00 0.00 80 1018.9
20260902114340 75 170 0.0 0.0 0.00 0.00 0.00 81 1018.9
20260902113832 75 170 0.0 0.0 0.00 0.00 0.00 81 1018.9
20260902113324 74 171 0.0 0.0 0.00 0.00 0.00 81 1019.0
20260902112815 74 171 0.0 0.0 0.00 0.00 0.00 81 1018.9
20260902112327 74 171 0.0 0.0 0.00 0.00 0.00 81 1018.9
20260902111819 74 171 0.0 2.0 0.00 0.00 0.00 81 1019.0
20260902111315 74 171 0.0 2.0 0.00 0.00 0.00 82 1019.0
20260902110827 74 170 0.0 1.0 0.00 0.00 0.00 82 1019.0
20260902110318 74 169 0.0 0.0 0.00 0.00 0.00 81 1019.1
20260902105828 75 170 0.0 2.0 0.00 0.00 0.00 80 1019.0
20260902105321 75 170 0.0 2.0 0.00 0.00 0.00 80 1019.1
20260902104832 75 170 0.0 1.0 0.00 0.00 0.00 80 1019.1
20260902104325 75 169 0.0 4.0 0.00 0.00 0.00 80 1019.2
20260902103816 75 171 1.0 4.0 0.00 0.00 0.00 80 1019.0
20260902103329 75 185 0.0 3.0 0.00 0.00 0.00 79 1019.0
20260902102825 75 180 0.0 4.0 0.00 0.00 0.00 79 1019.0
20260902102317 75 173 0.0 4.0 0.00 0.00 0.00 79 1019.0
20260902101830 75 176 1.0 4.0 0.00 0.00 0.00 79 1018.9
20260902101320 75 158 1.0 5.0 0.00 0.00 0.00 78 1019.0
20260902100832 75 151 2.0 5.0 0.00 0.00 0.00 78 1018.9
20260902100324 75 165 0.0 5.0 0.00 0.00 0.00 77 1018.9
20260902095813 76 176 0.0 3.0 0.00 0.00 0.00 77 1018.9
20260902095327 76 174 1.0 4.0 0.00 0.00 0.00 77 1018.7
20260902094822 76 174 2.0 5.0 0.00 0.00 0.00 77 1018.7
20260902094313 76 175 3.0 5.0 0.00 0.00 0.00 77 1018.8
20260902093826 76 171 1.0 4.0 0.00 0.00 0.00 77 1018.8
20260902093318 76 179 1.0 4.0 0.00 0.00 0.00 77 1018.7
20260902092830 76 172 0.0 3.0 0.00 0.00 0.00 77 1018.9
20260902092321 76 171 0.0 2.0 0.00 0.00 0.00 77 1018.9
20260902091853 76 169 0.0 3.0 0.00 0.00 0.00 77 1018.9
20260902091343 76 168 1.0 3.0 0.00 0.00 0.00 76 1018.9
20260902090814 76 180 1.0 2.0 0.00 0.00 0.00 76 1018.8
20260902090329 76 131 1.0 2.0 0.00 0.00 0.00 75 1019.0
20260902085819 76 170 0.0 2.0 0.00 0.00 0.00 75 1018.9
20260902085331 77 172 0.0 2.0 0.00 0.00 0.00 75 1018.9
20260902084823 77 171 1.0 4.0 0.00 0.00 0.00 74 1018.8